Wetterdaten: Samstag, 08.03.2014
Datum Zeit Temperatur Luftfeuchte Luftdruck Regen Wind Richtung Richtung Taupunkt Windchill Windben
08.03.2014 00:00 -1,4 C 90 % 1025,0 hPa 0,0 l/m 0,0 km/h (0 Bft) N-NO 22 -2,8 C -1,6 C 0,0 km/h (0 Bft)
08.03.2014 00:05 -1,6 C 90 % 1025,0 hPa 0,0 l/m 0,0 km/h (0 Bft) NO 45 -3,0 C -1,6 C 0,0 km/h (0 Bft)
08.03.2014 00:10 -1,9 C 90 % 1025,5 hPa 0,0 l/m 0,0 km/h (0 Bft) N 360 -3,3 C -1,7 C 0,0 km/h (0 Bft)
08.03.2014 00:15 -1,8 C 90 % 1025,5 hPa 0,0 l/m 0,0 km/h (0 Bft) N 360 -3,2 C -1,8 C 0,0 km/h (0 Bft)
08.03.2014 00:20 -1,7 C 90 % 1025,5 hPa 0,0 l/m 0,0 km/h (0 Bft) N 360 -3,1 C -1,8 C 0,0 km/h (0 Bft)
08.03.2014 00:25 -1,9 C 90 % 1025,5 hPa 0,0 l/m 0,0 km/h (0 Bft) N 360 -3,3 C -1,7 C 0,0 km/h (0 Bft)
08.03.2014 00:30 -0,5 C 91 % 1025,7 hPa 0,0 l/m 1,8 km/h (1 Bft) NO 45 -1,8 C -1,3 C 4,8 km/h (1 Bft)
08.03.2014 00:35 -0,3 C 92 % 1025,7 hPa 0,0 l/m 2,6 km/h (1 Bft) O-SO 112 -1,4 C -1,0 C 1,9 km/h (1 Bft)
08.03.2014 00:40 -0,5 C 92 % 1025,7 hPa 0,0 l/m 1,1 km/h (1 Bft) NO 45 -1,6 C -0,6 C 0,0 km/h (0 Bft)
08.03.2014 00:45 -0,2 C 92 % 1025,7 hPa 0,0 l/m 0,8 km/h (0 Bft) O 90 -1,3 C -0,6 C 2,1 km/h (1 Bft)
08.03.2014 00:50 -0,5 C 92 % 1026,2 hPa 0,0 l/m 0,5 km/h (0 Bft) N-NO 22 -1,6 C -0,4 C 0,0 km/h (0 Bft)
08.03.2014 00:55 -0,1 C 92 % 1026,2 hPa 0,0 l/m 0,5 km/h (0 Bft) O-NO 67 -1,2 C -0,4 C 3,1 km/h (1 Bft)
08.03.2014 01:00 0,3 C 93 % 1026,2 hPa 0,0 l/m 1,6 km/h (1 Bft) NO 45 -0,7 C 0,0 C 0,0 km/h (0 Bft)
08.03.2014 01:05 0,1 C 92 % 1026,2 hPa 0,0 l/m 1,6 km/h (1 Bft) N 360 -1,0 C 0,0 C 1,8 km/h (1 Bft)
08.03.2014 01:10 0,2 C 92 % 1026,4 hPa 0,0 l/m 0,8 km/h (0 Bft) NO 45 -0,9 C 0,0 C 2,6 km/h (1 Bft)
08.03.2014 01:15 0,4 C 93 % 1026,4 hPa 0,0 l/m 1,6 km/h (1 Bft) O-NO 67 -0,6 C 0,2 C 2,7 km/h (1 Bft)
08.03.2014 01:20 0,4 C 93 % 1026,4 hPa 0,0 l/m 1,6 km/h (1 Bft) O 90 -0,6 C 0,3 C 3,9 km/h (1 Bft)
08.03.2014 01:25 0,8 C 93 % 1026,4 hPa 0,0 l/m 2,7 km/h (1 Bft) O-NO 67 -0,2 C 0,2 C 6,6 km/h (2 Bft)
08.03.2014 01:30 1,0 C 92 % 1026,7 hPa 0,0 l/m 5,6 km/h (1 Bft) O 90 -0,2 C -1,0 C 8,0 km/h (2 Bft)
08.03.2014 01:35 1,1 C 92 % 1026,7 hPa 0,0 l/m 6,8 km/h (2 Bft) NO 45 -0,1 C -1,6 C 8,0 km/h (2 Bft)
08.03.2014 01:40 1,2 C 92 % 1026,7 hPa 0,0 l/m 6,9 km/h (2 Bft) O 90 0,0 C -1,6 C 8,7 km/h (2 Bft)
08.03.2014 01:45 1,1 C 91 % 1026,7 hPa 0,0 l/m 7,1 km/h (2 Bft) O 90 -0,2 C -1,9 C 6,8 km/h (2 Bft)
08.03.2014 01:50 1,4 C 91 % 1026,5 hPa 0,0 l/m 6,4 km/h (2 Bft) O-NO 67 0,1 C -0,8 C 9,8 km/h (2 Bft)
08.03.2014 01:55 1,5 C 91 % 1026,5 hPa 0,0 l/m 5,6 km/h (1 Bft) NO 45 0,2 C -0,3 C 6,8 km/h (2 Bft)
08.03.2014 02:00 1,5 C 90 % 1026,5 hPa 0,0 l/m 5,5 km/h (1 Bft) NO 45 0,0 C -0,1 C 6,1 km/h (2 Bft)
08.03.2014 02:05 1,4 C 90 % 1026,5 hPa 0,0 l/m 5,5 km/h (1 Bft) NO 45 -0,1 C -0,1 C 6,0 km/h (2 Bft)
08.03.2014 02:10 1,4 C 89 % 1026,8 hPa 0,0 l/m 3,9 km/h (1 Bft) O-NO 67 -0,2 C 0,7 C 3,1 km/h (1 Bft)
08.03.2014 02:15 1,3 C 89 % 1026,8 hPa 0,0 l/m 1,9 km/h (1 Bft) S 180 -0,3 C 1,5 C 0,0 km/h (0 Bft)
08.03.2014 02:20 1,1 C 89 % 1026,8 hPa 0,0 l/m 0,3 km/h (0 Bft) O 90 -0,5 C 1,2 C 1,8 km/h (1 Bft)
08.03.2014 02:25 1,1 C 89 % 1026,8 hPa 0,0 l/m 1,0 km/h (0 Bft) SO 135 -0,5 C 1,1 C 3,2 km/h (1 Bft)
08.03.2014 02:29 1,2 C 89 % 1027,1 hPa 0,0 l/m 1,9 km/h (1 Bft) O-NO 67 -0,4 C 1,1 C 0,0 km/h (0 Bft)
08.03.2014 02:30 1,2 C 89 % 1027,1 hPa 0,0 l/m 1,9 km/h (1 Bft) O-NO 67 -0,4 C 1,1 C 0,0 km/h (0 Bft)
08.03.2014 02:35 1,2 C 89 % 1027,1 hPa 0,0 l/m 1,4 km/h (1 Bft) NO 45 -0,4 C 1,0 C 2,6 km/h (1 Bft)
08.03.2014 02:40 1,5 C 89 % 1027,1 hPa 0,0 l/m 3,1 km/h (1 Bft) O 90 -0,1 C 0,7 C 7,4 km/h (2 Bft)
08.03.2014 02:45 1,6 C 89 % 1027,1 hPa 0,0 l/m 6,0 km/h (2 Bft) O-SO 112 -0,0 C -0,4 C 9,8 km/h (2 Bft)
08.03.2014 02:50 1,7 C 88 % 1026,9 hPa 0,0 l/m 8,4 km/h (2 Bft) O-SO 112 -0,1 C -2,9 C 11,7 km/h (2 Bft)
08.03.2014 02:55 1,7 C 88 % 1026,9 hPa 0,0 l/m 8,5 km/h (2 Bft) O-SO 112 -0,1 C -2,8 C 7,7 km/h (2 Bft)
08.03.2014 03:00 1,8 C 88 % 1026,9 hPa 0,0 l/m 5,8 km/h (2 Bft) O-NO 67 0,0 C 0,3 C 0,0 km/h (0 Bft)
08.03.2014 03:05 1,5 C 87 % 1026,9 hPa 0,0 l/m 2,9 km/h (1 Bft) N-NO 22 -0,4 C 1,7 C 2,6 km/h (1 Bft)
08.03.2014 03:10 1,4 C 87 % 1027,2 hPa 0,0 l/m 0,5 km/h (0 Bft) O 90 -0,5 C 1,6 C 1,8 km/h (1 Bft)
08.03.2014 03:15 1,5 C 87 % 1027,2 hPa 0,0 l/m 2,1 km/h (1 Bft) O 90 -0,4 C 1,6 C 6,8 km/h (2 Bft)
08.03.2014 03:20 1,8 C 87 % 1027,2 hPa 0,0 l/m 4,8 km/h (1 Bft) O-SO 112 -0,1 C 0,5 C 7,1 km/h (2 Bft)
08.03.2014 03:25 1,8 C 87 % 1027,2 hPa 0,0 l/m 5,3 km/h (1 Bft) NO 45 -0,1 C 0,6 C 5,8 km/h (2 Bft)
08.03.2014 03:30 1,7 C 87 % 1026,8 hPa 0,0 l/m 4,3 km/h (1 Bft) O 90 -0,2 C 1,0 C 0,0 km/h (0 Bft)
08.03.2014 03:35 1,6 C 87 % 1026,8 hPa 0,0 l/m 2,9 km/h (1 Bft) W-NW 292 -0,3 C 1,7 C 2,3 km/h (1 Bft)
08.03.2014 03:40 1,4 C 87 % 1026,8 hPa 0,0 l/m 1,0 km/h (0 Bft) N 360 -0,5 C 1,6 C 2,9 km/h (1 Bft)
08.03.2014 03:45 1,4 C 87 % 1026,8 hPa 0,0 l/m 0,6 km/h (0 Bft) N 360 -0,5 C 1,5 C 0,0 km/h (0 Bft)
08.03.2014 03:50 1,3 C 87 % 1027,1 hPa 0,0 l/m 0,6 km/h (0 Bft) N-NO 22 -0,6 C 1,5 C 1,9 km/h (1 Bft)
08.03.2014 03:55 1,3 C 87 % 1027,1 hPa 0,0 l/m 0,8 km/h (0 Bft) S 180 -0,6 C 1,4 C 1,9 km/h (1 Bft)
08.03.2014 04:00 1,1 C 87 % 1027,1 hPa 0,0 l/m 1,1 km/h (1 Bft) N-NO 22 -0,8 C 1,4 C 0,0 km/h (0 Bft)
08.03.2014 04:05 1,1 C 87 % 1027,1 hPa 0,0 l/m 0,8 km/h (0 Bft) N-NO 22 -0,8 C 1,3 C 0,0 km/h (0 Bft)
08.03.2014 04:10 0,9 C 87 % 1027,1 hPa 0,0 l/m 0,2 km/h (0 Bft) N-NO 22 -1,0 C 1,1 C 0,0 km/h (0 Bft)
08.03.2014 04:15 0,7 C 87 % 1027,1 hPa 0,0 l/m 0,2 km/h (0 Bft) S 180 -1,2 C 1,0 C 0,0 km/h (0 Bft)
08.03.2014 04:20 0,7 C 88 % 1027,1 hPa 0,0 l/m 0,2 km/h (0 Bft) NO 45 -1,1 C 0,7 C 0,0 km/h (0 Bft)
08.03.2014 04:25 0,5 C 88 % 1027,1 hPa 0,0 l/m 0,0 km/h (0 Bft) NO 45 -1,3 C 0,7 C 0,0 km/h (0 Bft)
08.03.2014 04:30 0,3 C 88 % 1027,2 hPa 0,0 l/m 0,0 km/h (0 Bft) NO 45 -1,4 C 0,6 C 0,0 km/h (0 Bft)
08.03.2014 04:35 0,2 C 88 % 1027,2 hPa 0,0 l/m 0,0 km/h (0 Bft) O-NO 67 -1,5 C 0,3 C 0,0 km/h (0 Bft)
08.03.2014 04:40 0,3 C 88 % 1027,2 hPa 0,0 l/m 0,5 km/h (0 Bft) NO 45 -1,4 C 0,0 C 0,0 km/h (0 Bft)
08.03.2014 04:45 0,1 C 88 % 1027,2 hPa 0,0 l/m 0,5 km/h (0 Bft) NO 45 -1,6 C -0,1 C 0,0 km/h (0 Bft)
08.03.2014 04:50 0,0 C 88 % 1027,1 hPa 0,0 l/m 0,2 km/h (0 Bft) NO 45 -1,7 C -0,4 C 0,0 km/h (0 Bft)
08.03.2014 04:55 -0,3 C 88 % 1027,1 hPa 0,0 l/m 0,0 km/h (0 Bft) NO 45 -2,0 C -0,6 C 0,0 km/h (0 Bft)
08.03.2014 05:00 -0,5 C 88 % 1027,1 hPa 0,0 l/m 0,0 km/h (0 Bft) NO 45 -2,2 C -0,8 C 0,0 km/h (0 Bft)
08.03.2014 05:05 -0,4 C 88 % 1027,1 hPa 0,0 l/m 0,0 km/h (0 Bft) O 90 -2,1 C -0,9 C 0,0 km/h (0 Bft)
08.03.2014 05:10 -0,1 C 89 % 1027,4 hPa 0,0 l/m 0,6 km/h (0 Bft) SO 135 -1,7 C -0,8 C 2,1 km/h (1 Bft)
08.03.2014 05:15 -0,3 C 89 % 1027,4 hPa 0,0 l/m 0,6 km/h (0 Bft) O-SO 112 -1,9 C -0,7 C 0,0 km/h (0 Bft)
08.03.2014 05:20 -0,7 C 89 % 1027,4 hPa 0,0 l/m 0,2 km/h (0 Bft) NW 315 -2,3 C -0,9 C 0,0 km/h (0 Bft)
08.03.2014 05:25 -1,0 C 89 % 1027,4 hPa 0,0 l/m 0,3 km/h (0 Bft) N-NW 337 -2,6 C -1,0 C 0,0 km/h (0 Bft)
08.03.2014 05:30 -1,3 C 89 % 1027,4 hPa 0,0 l/m 0,3 km/h (0 Bft) W-NW 292 -2,9 C -1,4 C 0,0 km/h (0 Bft)
08.03.2014 05:35 -1,3 C 89 % 1027,4 hPa 0,0 l/m 0,0 km/h (0 Bft) NO 45 -2,9 C -1,5 C 1,9 km/h (1 Bft)
08.03.2014 05:40 -1,1 C 89 % 1027,4 hPa 0,0 l/m 0,6 km/h (0 Bft) O-SO 112 -2,7 C -1,5 C 0,0 km/h (0 Bft)
08.03.2014 05:45 -0,9 C 89 % 1027,4 hPa 0,0 l/m 1,1 km/h (1 Bft) O-NO 67 -2,5 C -1,5 C 1,6 km/h (1 Bft)
08.03.2014 05:50 -1,1 C 89 % 1027,6 hPa 0,0 l/m 1,0 km/h (0 Bft) O-NO 67 -2,7 C -1,5 C 0,0 km/h (0 Bft)
08.03.2014 05:55 -1,2 C 90 % 1027,6 hPa 0,0 l/m 0,6 km/h (0 Bft) NO 45 -2,6 C -1,6 C 0,0 km/h (0 Bft)
08.03.2014 06:00 -1,6 C 89 % 1027,6 hPa 0,0 l/m 0,0 km/h (0 Bft) NO 45 -3,2 C -1,7 C 0,0 km/h (0 Bft)
08.03.2014 06:05 -1,3 C 90 % 1027,6 hPa 0,0 l/m 0,0 km/h (0 Bft) NO 45 -2,7 C -1,9 C 2,1 km/h (1 Bft)
08.03.2014 06:10 -1,1 C 90 % 1028,2 hPa 0,0 l/m 0,5 km/h (0 Bft) N-NO 22 -2,5 C -1,7 C 0,0 km/h (0 Bft)
08.03.2014 06:15 -1,6 C 90 % 1028,2 hPa 0,0 l/m 0,5 km/h (0 Bft) N-NO 22 -3,0 C -1,7 C 0,0 km/h (0 Bft)
08.03.2014 06:20 -1,7 C 90 % 1028,2 hPa 0,0 l/m 0,0 km/h (0 Bft) O-SO 112 -3,1 C -2,0 C 0,0 km/h (0 Bft)
08.03.2014 06:25 -1,9 C 90 % 1028,2 hPa 0,0 l/m 0,5 km/h (0 Bft) SO 135 -3,3 C -1,9 C 2,3 km/h (1 Bft)
08.03.2014 06:30 -1,8 C 90 % 1028,4 hPa 0,0 l/m 0,6 km/h (0 Bft) O 90 -3,2 C -1,9 C 0,0 km/h (0 Bft)
08.03.2014 06:35 -1,8 C 90 % 1028,4 hPa 0,0 l/m 0,5 km/h (0 Bft) O 90 -3,2 C -2,0 C 0,0 km/h (0 Bft)
08.03.2014 06:40 -1,7 C 90 % 1028,4 hPa 0,0 l/m 0,0 km/h (0 Bft) O 90 -3,1 C -2,2 C 2,3 km/h (1 Bft)
08.03.2014 06:45 -1,1 C 91 % 1028,4 hPa 0,0 l/m 1,1 km/h (1 Bft) O-SO 112 -2,4 C -2,1 C 3,1 km/h (1 Bft)
08.03.2014 06:50 -0,9 C 91 % 1028,2 hPa 0,0 l/m 1,6 km/h (1 Bft) O-NO 67 -2,2 C -1,7 C 0,0 km/h (0 Bft)
08.03.2014 06:55 -1,8 C 91 % 1028,2 hPa 0,0 l/m 0,8 km/h (0 Bft) N 360 -3,1 C -1,9 C 0,0 km/h (0 Bft)
08.03.2014 07:00 -2,0 C 90 % 1028,2 hPa 0,0 l/m 0,0 km/h (0 Bft) N 360 -3,4 C -2,2 C 0,0 km/h (0 Bft)
08.03.2014 07:05 -1,8 C 90 % 1028,2 hPa 0,0 l/m 0,0 km/h (0 Bft) N-NO 22 -3,2 C -2,3 C 0,0 km/h (0 Bft)
08.03.2014 07:10 -1,8 C 91 % 1028,3 hPa 0,0 l/m 0,2 km/h (0 Bft) N-NO 22 -3,1 C -2,2 C 1,8 km/h (1 Bft)
08.03.2014 07:15 -1,6 C 91 % 1028,3 hPa 0,0 l/m 0,6 km/h (0 Bft) N-NO 22 -2,9 C -2,1 C 0,0 km/h (0 Bft)
08.03.2014 07:20 -1,8 C 91 % 1028,3 hPa 0,0 l/m 0,6 km/h (0 Bft) N 360 -3,1 C -2,0 C 0,0 km/h (0 Bft)
08.03.2014 07:23 -1,9 C 91 % 1028,3 hPa 0,0 l/m 0,0 km/h (0 Bft) N-NO 22 -3,2 C -2,1 C 0,0 km/h (0 Bft)
08.03.2014 07:25 -1,9 C 91 % 1028,3 hPa 0,0 l/m 0,0 km/h (0 Bft) N-NO 22 -3,2 C -2,1 C 0,0 km/h (0 Bft)
08.03.2014 07:30 -1,9 C 91 % 1028,6 hPa 0,0 l/m 0,0 km/h (0 Bft) N-NO 22 -3,2 C -2,1 C 0,0 km/h (0 Bft)
08.03.2014 07:35 -1,6 C 91 % 1028,6 hPa 0,0 l/m 0,2 km/h (0 Bft) N-NW 337 -2,9 C -2,0 C 4,0 km/h (1 Bft)
08.03.2014 07:40 -1,3 C 91 % 1028,6 hPa 0,0 l/m 0,6 km/h (0 Bft) O-NO 67 -2,6 C -1,7 C 0,0 km/h (0 Bft)
08.03.2014 07:45 -1,4 C 91 % 1028,6 hPa 0,0 l/m 0,6 km/h (0 Bft) O-NO 67 -2,7 C -1,5 C 0,0 km/h (0 Bft)
08.03.2014 07:50 -1,1 C 91 % 1029,1 hPa 0,0 l/m 0,0 km/h (0 Bft) O 90 -2,4 C -1,3 C 0,0 km/h (0 Bft)
08.03.2014 07:55 -1,1 C 91 % 1029,1 hPa 0,0 l/m 0,0 km/h (0 Bft) O 90 -2,4 C -1,2 C 0,0 km/h (0 Bft)
08.03.2014 08:00 -1,1 C 91 % 1029,1 hPa 0,0 l/m 0,0 km/h (0 Bft) N 360 -2,4 C -1,0 C 0,0 km/h (0 Bft)
08.03.2014 08:05 -1,0 C 91 % 1029,1 hPa 0,0 l/m 0,0 km/h (0 Bft) N-NO 22 -2,3 C -0,8 C 0,0 km/h (0 Bft)
08.03.2014 08:10 -0,6 C 92 % 1029,4 hPa 0,0 l/m 0,6 km/h (0 Bft) N-NO 22 -1,7 C 0,4 C 1,6 km/h (1 Bft)
08.03.2014 08:15 -0,5 C 92 % 1029,4 hPa 0,0 l/m 0,6 km/h (0 Bft) NO 45 -1,6 C 1,1 C 0,0 km/h (0 Bft)
08.03.2014 08:20 -0,3 C 92 % 1029,4 hPa 0,0 l/m 0,0 km/h (0 Bft) N 360 -1,4 C 2,4 C 0,0 km/h (0 Bft)
08.03.2014 08:25 -0,1 C 92 % 1029,4 hPa 0,0 l/m 0,0 km/h (0 Bft) NO 45 -1,2 C 3,2 C 0,0 km/h (0 Bft)
08.03.2014 08:30 0,2 C 92 % 1029,5 hPa 0,0 l/m 0,0 km/h (0 Bft) NO 45 -0,9 C 4,7 C 0,0 km/h (0 Bft)
08.03.2014 08:35 0,4 C 92 % 1029,5 hPa 0,0 l/m 0,0 km/h (0 Bft) NO 45 -0,7 C 5,4 C 0,0 km/h (0 Bft)
08.03.2014 08:40 0,7 C 92 % 1029,5 hPa 0,0 l/m 0,0 km/h (0 Bft) NO 45 -0,4 C 6,0 C 0,0 km/h (0 Bft)
08.03.2014 08:45 0,9 C 92 % 1029,5 hPa 0,0 l/m 0,0 km/h (0 Bft) NO 45 -0,2 C 6,5 C 0,0 km/h (0 Bft)
08.03.2014 08:50 1,3 C 92 % 1029,8 hPa 0,0 l/m 0,0 km/h (0 Bft) NO 45 0,1 C 7,3 C 0,0 km/h (0 Bft)
08.03.2014 08:55 1,5 C 92 % 1029,8 hPa 0,0 l/m 0,2 km/h (0 Bft) SO 135 0,3 C 7,5 C 1,9 km/h (1 Bft)
08.03.2014 09:00 1,9 C 92 % 1029,8 hPa 0,0 l/m 0,3 km/h (0 Bft) NO 45 0,7 C 8,0 C 0,0 km/h (0 Bft)
08.03.2014 09:05 2,0 C 91 % 1029,8 hPa 0,0 l/m 0,3 km/h (0 Bft) O 90 0,7 C 8,6 C 0,0 km/h (0 Bft)
08.03.2014 09:10 3,4 C 90 % 1030,2 hPa 0,0 l/m 0,2 km/h (0 Bft) O 90 1,9 C 9,3 C 0,0 km/h (0 Bft)
08.03.2014 09:15 4,6 C 89 % 1030,2 hPa 0,0 l/m 0,3 km/h (0 Bft) S-SW 202 2,9 C 9,6 C 0,0 km/h (0 Bft)
08.03.2014 09:20 6,0 C 83 % 1030,2 hPa 0,0 l/m 0,2 km/h (0 Bft) NO 45 3,3 C 10,1 C 0,0 km/h (0 Bft)
08.03.2014 09:25 6,5 C 78 % 1030,2 hPa 0,0 l/m 0,0 km/h (0 Bft) N-NO 22 2,9 C 10,2 C 0,0 km/h (0 Bft)
08.03.2014 09:30 7,6 C 77 % 1030,4 hPa 0,0 l/m 0,0 km/h (0 Bft) NO 45 3,8 C 10,7 C 0,0 km/h (0 Bft)
08.03.2014 09:35 8,1 C 76 % 1030,4 hPa 0,0 l/m 0,0 km/h (0 Bft) NW 315 4,1 C 11,4 C 0,0 km/h (0 Bft)
08.03.2014 09:40 7,5 C 74 % 1030,4 hPa 0,0 l/m 0,5 km/h (0 Bft) O-NO 67 3,2 C 11,3 C 0,0 km/h (0 Bft)
08.03.2014 09:45 7,4 C 74 % 1030,4 hPa 0,0 l/m 0,8 km/h (0 Bft) NO 45 3,1 C 11,2 C 0,0 km/h (0 Bft)
08.03.2014 09:50 8,2 C 68 % 1030,9 hPa 0,0 l/m 1,8 km/h (1 Bft) W-NW 292 2,7 C 10,8 C 5,8 km/h (2 Bft)
08.03.2014 09:55 8,0 C 62 % 1030,9 hPa 0,0 l/m 3,2 km/h (1 Bft) W-NW 292 1,2 C 10,0 C 6,4 km/h (2 Bft)
08.03.2014 10:00 7,9 C 59 % 1030,9 hPa 0,0 l/m 4,7 km/h (1 Bft) N-NO 22 0,4 C 9,2 C 4,5 km/h (1 Bft)
08.03.2014 10:05 7,8 C 60 % 1030,9 hPa 0,0 l/m 5,1 km/h (1 Bft) W 270 0,5 C 8,4 C 5,6 km/h (1 Bft)
08.03.2014 10:10 7,8 C 59 % 1030,9 hPa 0,0 l/m 6,0 km/h (2 Bft) NO 45 0,3 C 7,5 C 12,2 km/h (2 Bft)
08.03.2014 10:15 8,1 C 61 % 1030,9 hPa 0,0 l/m 6,0 km/h (2 Bft) N-NO 22 1,0 C 7,4 C 5,1 km/h (1 Bft)
08.03.2014 10:20 9,1 C 58 % 1030,9 hPa 0,0 l/m 5,5 km/h (1 Bft) N 360 1,3 C 8,2 C 7,6 km/h (2 Bft)
08.03.2014 10:25 9,2 C 56 % 1030,9 hPa 0,0 l/m 5,1 km/h (1 Bft) N-NW 337 0,9 C 8,6 C 7,1 km/h (2 Bft)
08.03.2014 10:30 9,2 C 54 % 1030,9 hPa 0,0 l/m 6,4 km/h (2 Bft) N-NW 337 0,4 C 9,1 C 6,1 km/h (2 Bft)
08.03.2014 10:35 9,5 C 55 % 1030,9 hPa 0,0 l/m 6,3 km/h (2 Bft) NW 315 0,9 C 9,6 C 8,5 km/h (2 Bft)
08.03.2014 10:40 10,0 C 53 % 1030,9 hPa 0,0 l/m 6,0 km/h (2 Bft) NW 315 0,9 C 10,7 C 8,2 km/h (2 Bft)
08.03.2014 10:45 10,1 C 53 % 1030,9 hPa 0,0 l/m 6,4 km/h (2 Bft) NW 315 1,0 C 10,7 C 6,3 km/h (2 Bft)
08.03.2014 10:50 10,6 C 53 % 1030,9 hPa 0,0 l/m 5,6 km/h (1 Bft) N 360 1,4 C 11,8 C 4,0 km/h (1 Bft)
08.03.2014 10:55 10,7 C 51 % 1030,9 hPa 0,0 l/m 5,6 km/h (1 Bft) N-NW 337 1,0 C 11,9 C 7,9 km/h (2 Bft)
08.03.2014 11:00 10,8 C 49 % 1030,9 hPa 0,0 l/m 6,6 km/h (2 Bft) W-NW 292 0,5 C 11,8 C 3,4 km/h (1 Bft)
08.03.2014 11:05 10,5 C 49 % 1030,9 hPa 0,0 l/m 6,4 km/h (2 Bft) N 360 0,2 C 12,1 C 7,7 km/h (2 Bft)
08.03.2014 11:10 10,3 C 51 % 1031,1 hPa 0,0 l/m 7,1 km/h (2 Bft) N-NW 337 0,6 C 11,3 C 9,3 km/h (2 Bft)
08.03.2014 11:15 10,9 C 52 % 1031,1 hPa 0,0 l/m 7,2 km/h (2 Bft) N-NW 337 1,4 C 11,3 C 10,1 km/h (2 Bft)
08.03.2014 11:20 10,6 C 50 % 1031,1 hPa 0,0 l/m 7,4 km/h (2 Bft) N 360 0,6 C 11,1 C 12,7 km/h (3 Bft)
08.03.2014 11:25 11,1 C 49 % 1031,1 hPa 0,0 l/m 7,2 km/h (2 Bft) N-NW 337 0,8 C 11,4 C 8,0 km/h (2 Bft)
08.03.2014 11:30 11,4 C 49 % 1030,9 hPa 0,0 l/m 7,1 km/h (2 Bft) W-NW 292 1,1 C 11,6 C 10,1 km/h (2 Bft)
08.03.2014 11:35 11,2 C 48 % 1030,9 hPa 0,0 l/m 7,6 km/h (2 Bft) N-NW 337 0,6 C 10,9 C 8,4 km/h (2 Bft)
08.03.2014 11:40 11,4 C 49 % 1030,9 hPa 0,0 l/m 7,9 km/h (2 Bft) N 360 1,1 C 10,6 C 13,8 km/h (3 Bft)
08.03.2014 11:45 11,3 C 50 % 1030,9 hPa 0,0 l/m 7,7 km/h (2 Bft) N-NO 22 1,3 C 10,8 C 7,2 km/h (2 Bft)
08.03.2014 11:50 11,4 C 50 % 1030,9 hPa 0,0 l/m 7,7 km/h (2 Bft) W 270 1,4 C 10,9 C 7,4 km/h (2 Bft)
08.03.2014 11:55 11,6 C 49 % 1030,9 hPa 0,0 l/m 7,9 km/h (2 Bft) NO 45 1,3 C 11,1 C 11,3 km/h (2 Bft)
08.03.2014 12:00 11,6 C 49 % 1030,9 hPa 0,0 l/m 7,1 km/h (2 Bft) N 360 1,3 C 12,2 C 7,6 km/h (2 Bft)
08.03.2014 12:05 11,7 C 48 % 1030,9 hPa 0,0 l/m 6,6 km/h (2 Bft) N-NW 337 1,1 C 12,8 C 9,7 km/h (2 Bft)
08.03.2014 12:10 11,1 C 49 % 1030,9 hPa 0,0 l/m 6,9 km/h (2 Bft) W 270 0,8 C 12,4 C 5,5 km/h (1 Bft)
08.03.2014 12:15 11,5 C 49 % 1030,9 hPa 0,0 l/m 7,1 km/h (2 Bft) W-NW 292 1,2 C 12,4 C 9,7 km/h (2 Bft)
08.03.2014 12:20 11,4 C 49 % 1030,9 hPa 0,0 l/m 6,4 km/h (2 Bft) N-NW 337 1,1 C 13,1 C 8,0 km/h (2 Bft)
08.03.2014 12:24 11,5 C 50 % 1030,9 hPa 0,0 l/m 6,8 km/h (2 Bft) W 270 1,4 C 13,1 C 6,4 km/h (2 Bft)
08.03.2014 12:25 11,5 C 50 % 1030,9 hPa 0,0 l/m 6,8 km/h (2 Bft) W 270 1,4 C 13,1 C 6,4 km/h (2 Bft)
08.03.2014 12:30 11,6 C 49 % 1031,1 hPa 0,0 l/m 6,9 km/h (2 Bft) N-NO 22 1,3 C 13,0 C 7,1 km/h (2 Bft)
08.03.2014 12:35 11,8 C 49 % 1031,1 hPa 0,0 l/m 6,8 km/h (2 Bft) W-NW 292 1,4 C 13,2 C 7,2 km/h (2 Bft)
08.03.2014 12:40 11,3 C 49 % 1031,1 hPa 0,0 l/m 7,4 km/h (2 Bft) NW 315 1,0 C 12,7 C 8,7 km/h (2 Bft)
08.03.2014 12:45 11,2 C 49 % 1031,1 hPa 0,0 l/m 7,9 km/h (2 Bft) W-NW 292 0,9 C 12,2 C 12,6 km/h (3 Bft)
08.03.2014 12:50 11,7 C 48 % 1030,9 hPa 0,0 l/m 8,0 km/h (2 Bft) N 360 1,1 C 11,9 C 15,3 km/h (3 Bft)
08.03.2014 12:55 12,0 C 48 % 1030,9 hPa 0,0 l/m 7,6 km/h (2 Bft) N-NW 337 1,3 C 12,7 C 12,2 km/h (2 Bft)
08.03.2014 13:00 12,1 C 46 % 1030,9 hPa 0,0 l/m 7,2 km/h (2 Bft) W 270 0,8 C 13,2 C 8,2 km/h (2 Bft)
08.03.2014 13:05 11,8 C 46 % 1030,9 hPa 0,0 l/m 7,4 km/h (2 Bft) N-NW 337 0,6 C 13,2 C 8,4 km/h (2 Bft)
08.03.2014 13:10 11,7 C 45 % 1030,8 hPa 0,0 l/m 7,7 km/h (2 Bft) NW 315 0,2 C 12,8 C 10,5 km/h (2 Bft)
08.03.2014 13:15 11,7 C 46 % 1030,8 hPa 0,0 l/m 8,0 km/h (2 Bft) NW 315 0,5 C 12,6 C 10,5 km/h (2 Bft)
08.03.2014 13:20 12,3 C 46 % 1030,8 hPa 0,0 l/m 7,2 km/h (2 Bft) N-NW 337 1,0 C 13,2 C 7,2 km/h (2 Bft)
08.03.2014 13:25 11,9 C 47 % 1030,8 hPa 0,0 l/m 7,7 km/h (2 Bft) SO 135 1,0 C 12,9 C 7,2 km/h (2 Bft)
08.03.2014 13:30 12,0 C 46 % 1030,8 hPa 0,0 l/m 7,2 km/h (2 Bft) W-NW 292 0,7 C 13,4 C 16,1 km/h (3 Bft)
08.03.2014 13:35 12,1 C 45 % 1030,8 hPa 0,0 l/m 6,8 km/h (2 Bft) N-NW 337 0,5 C 14,0 C 8,4 km/h (2 Bft)
08.03.2014 13:40 12,1 C 46 % 1030,8 hPa 0,0 l/m 7,4 km/h (2 Bft) NO 45 0,8 C 13,5 C 11,7 km/h (2 Bft)
08.03.2014 13:45 12,4 C 46 % 1030,8 hPa 0,0 l/m 6,9 km/h (2 Bft) W-NW 292 1,1 C 14,3 C 6,1 km/h (2 Bft)
08.03.2014 13:50 12,3 C 45 % 1030,6 hPa 0,0 l/m 6,8 km/h (2 Bft) W-NW 292 0,7 C 14,5 C 7,4 km/h (2 Bft)
08.03.2014 13:55 12,5 C 46 % 1030,6 hPa 0,0 l/m 6,8 km/h (2 Bft) W-NW 292 1,2 C 14,4 C 4,3 km/h (1 Bft)
08.03.2014 14:00 12,6 C 45 % 1030,6 hPa 0,0 l/m 7,4 km/h (2 Bft) NW 315 1,0 C 14,2 C 7,4 km/h (2 Bft)
08.03.2014 14:05 12,7 C 45 % 1030,6 hPa 0,0 l/m 7,6 km/h (2 Bft) N 360 1,1 C 14,1 C 7,2 km/h (2 Bft)
08.03.2014 14:10 12,5 C 45 % 1030,4 hPa 0,0 l/m 7,7 km/h (2 Bft) N 360 0,9 C 14,1 C 7,2 km/h (2 Bft)
08.03.2014 14:15 13,1 C 44 % 1030,4 hPa 0,0 l/m 7,1 km/h (2 Bft) W 270 1,1 C 14,6 C 8,2 km/h (2 Bft)
08.03.2014 14:20 12,8 C 45 % 1030,4 hPa 0,0 l/m 7,1 km/h (2 Bft) N-NO 22 1,2 C 14,6 C 13,4 km/h (3 Bft)
08.03.2014 14:25 12,6 C 43 % 1030,4 hPa 0,0 l/m 7,9 km/h (2 Bft) W-NW 292 0,4 C 13,8 C 6,8 km/h (2 Bft)
08.03.2014 14:30 12,6 C 44 % 1030,1 hPa 0,0 l/m 8,2 km/h (2 Bft) W-NW 292 0,7 C 13,8 C 16,9 km/h (3 Bft)
08.03.2014 14:35 12,9 C 44 % 1030,1 hPa 0,0 l/m 8,5 km/h (2 Bft) N 360 1,0 C 13,4 C 14,3 km/h (3 Bft)
08.03.2014 14:40 12,6 C 43 % 1030,1 hPa 0,0 l/m 8,7 km/h (2 Bft) N-NW 337 0,4 C 13,0 C 14,8 km/h (3 Bft)
08.03.2014 14:45 12,7 C 43 % 1030,1 hPa 0,0 l/m 8,7 km/h (2 Bft) N-NW 337 0,5 C 13,1 C 8,9 km/h (2 Bft)
08.03.2014 14:50 13,0 C 41 % 1030,1 hPa 0,0 l/m 6,8 km/h (2 Bft) N 360 0,1 C 15,0 C 5,5 km/h (1 Bft)
08.03.2014 14:55 12,9 C 42 % 1030,1 hPa 0,0 l/m 5,6 km/h (1 Bft) NO 45 0,3 C 15,6 C 10,1 km/h (2 Bft)
08.03.2014 15:00 12,9 C 42 % 1030,1 hPa 0,0 l/m 5,6 km/h (1 Bft) W-NW 292 0,3 C 15,9 C 7,1 km/h (2 Bft)
08.03.2014 15:05 13,2 C 42 % 1030,1 hPa 0,0 l/m 6,1 km/h (2 Bft) N-NW 337 0,6 C 16,1 C 9,7 km/h (2 Bft)
08.03.2014 15:10 13,0 C 40 % 1030,2 hPa 0,0 l/m 6,8 km/h (2 Bft) N-NW 337 -0,3 C 15,5 C 7,2 km/h (2 Bft)
08.03.2014 15:15 13,1 C 41 % 1030,2 hPa 0,0 l/m 6,9 km/h (2 Bft) SO 135 0,2 C 15,4 C 6,6 km/h (2 Bft)
08.03.2014 15:20 12,8 C 41 % 1030,2 hPa 0,0 l/m 6,8 km/h (2 Bft) N-NW 337 -0,1 C 15,5 C 8,0 km/h (2 Bft)
08.03.2014 15:25 13,0 C 39 % 1030,2 hPa 0,0 l/m 6,9 km/h (2 Bft) W 270 -0,6 C 15,3 C 7,1 km/h (2 Bft)
08.03.2014 15:30 13,0 C 38 % 1029,9 hPa 0,0 l/m 6,6 km/h (2 Bft) W-NW 292 -1,0 C 15,5 C 7,2 km/h (2 Bft)
08.03.2014 15:35 13,0 C 40 % 1029,9 hPa 0,0 l/m 6,1 km/h (2 Bft) W-NW 292 -0,3 C 15,7 C 7,7 km/h (2 Bft)
08.03.2014 15:40 13,0 C 40 % 1029,9 hPa 0,0 l/m 6,4 km/h (2 Bft) NW 315 -0,3 C 15,7 C 7,4 km/h (2 Bft)
08.03.2014 15:45 12,4 C 39 % 1029,9 hPa 0,0 l/m 6,6 km/h (2 Bft) N-NW 337 -1,2 C 15,6 C 10,1 km/h (2 Bft)
08.03.2014 15:50 12,5 C 39 % 1029,9 hPa 0,0 l/m 6,6 km/h (2 Bft) W-NW 292 -1,1 C 15,2 C 9,3 km/h (2 Bft)
08.03.2014 15:55 12,0 C 39 % 1029,9 hPa 0,0 l/m 7,1 km/h (2 Bft) W 270 -1,5 C 14,9 C 13,2 km/h (3 Bft)
08.03.2014 16:00 11,6 C 38 % 1029,9 hPa 0,0 l/m 7,6 km/h (2 Bft) W-NW 292 -2,2 C 14,4 C 8,2 km/h (2 Bft)
08.03.2014 16:05 11,4 C 39 % 1029,9 hPa 0,0 l/m 7,7 km/h (2 Bft) NO 45 -2,0 C 14,2 C 7,2 km/h (2 Bft)
08.03.2014 16:10 11,2 C 38 % 1029,9 hPa 0,0 l/m 7,4 km/h (2 Bft) N-NO 22 -2,6 C 14,3 C 9,7 km/h (2 Bft)
08.03.2014 16:15 11,0 C 38 % 1029,9 hPa 0,0 l/m 7,2 km/h (2 Bft) N-NW 337 -2,8 C 14,2 C 6,0 km/h (2 Bft)
08.03.2014 16:20 10,9 C 39 % 1029,9 hPa 0,0 l/m 5,8 km/h (2 Bft) NO 45 -2,5 C 15,0 C 7,2 km/h (2 Bft)
08.03.2014 16:25 10,9 C 39 % 1029,9 hPa 0,0 l/m 6,1 km/h (2 Bft) W-NW 292 -2,5 C 15,0 C 12,2 km/h (2 Bft)
08.03.2014 16:30 10,9 C 38 % 1029,8 hPa 0,0 l/m 8,0 km/h (2 Bft) W-NW 292 -2,8 C 13,4 C 11,7 km/h (2 Bft)
08.03.2014 16:35 10,8 C 39 % 1029,8 hPa 0,0 l/m 8,2 km/h (2 Bft) NW 315 -2,6 C 12,9 C 13,4 km/h (3 Bft)
08.03.2014 16:40 10,7 C 38 % 1029,8 hPa 0,0 l/m 7,1 km/h (2 Bft) N 360 -3,0 C 13,8 C 11,3 km/h (2 Bft)
08.03.2014 16:45 10,6 C 38 % 1029,8 hPa 0,0 l/m 7,1 km/h (2 Bft) W-NW 292 -3,1 C 13,5 C 10,0 km/h (2 Bft)
08.03.2014 16:50 10,5 C 39 % 1029,8 hPa 0,0 l/m 6,9 km/h (2 Bft) N 360 -2,9 C 13,7 C 6,3 km/h (2 Bft)
08.03.2014 16:55 10,2 C 39 % 1029,8 hPa 0,0 l/m 6,0 km/h (2 Bft) N 360 -3,1 C 14,1 C 6,8 km/h (2 Bft)
08.03.2014 17:00 10,2 C 38 % 1029,8 hPa 0,0 l/m 5,5 km/h (1 Bft) W-NW 292 -3,5 C 14,0 C 2,9 km/h (1 Bft)
08.03.2014 17:05 9,9 C 39 % 1029,8 hPa 0,0 l/m 5,8 km/h (2 Bft) N 360 -3,4 C 13,9 C 10,6 km/h (2 Bft)
08.03.2014 17:10 9,2 C 41 % 1029,8 hPa 0,0 l/m 4,8 km/h (1 Bft) N-NW 337 -3,4 C 13,6 C 8,2 km/h (2 Bft)
08.03.2014 17:15 9,1 C 43 % 1029,8 hPa 0,0 l/m 5,6 km/h (1 Bft) N-NW 337 -2,8 C 13,3 C 7,4 km/h (2 Bft)
08.03.2014 17:20 8,8 C 45 % 1029,8 hPa 0,0 l/m 4,5 km/h (1 Bft) W-SW 247 -2,5 C 12,9 C 2,9 km/h (1 Bft)
08.03.2014 17:24 8,4 C 46 % 1029,8 hPa 0,0 l/m 3,2 km/h (1 Bft) N 360 -2,5 C 12,9 C 5,0 km/h (1 Bft)
08.03.2014 17:25 8,4 C 46 % 1029,8 hPa 0,0 l/m 3,2 km/h (1 Bft) N 360 -2,5 C 12,9 C 5,0 km/h (1 Bft)
08.03.2014 17:30 8,3 C 48 % 1029,8 hPa 0,0 l/m 2,6 km/h (1 Bft) NO 45 -2,1 C 12,5 C 2,3 km/h (1 Bft)
08.03.2014 17:35 8,1 C 49 % 1029,8 hPa 0,0 l/m 2,7 km/h (1 Bft) O 90 -2,0 C 12,2 C 3,9 km/h (1 Bft)
08.03.2014 17:40 7,8 C 50 % 1029,8 hPa 0,0 l/m 2,6 km/h (1 Bft) W-SW 247 -2,0 C 11,7 C 3,2 km/h (1 Bft)
08.03.2014 17:45 7,6 C 52 % 1029,8 hPa 0,0 l/m 2,3 km/h (1 Bft) N-NW 337 -1,6 C 11,3 C 4,5 km/h (1 Bft)
08.03.2014 17:50 7,4 C 53 % 1029,9 hPa 0,0 l/m 2,7 km/h (1 Bft) NO 45 -1,5 C 10,8 C 1,9 km/h (1 Bft)
08.03.2014 17:55 7,0 C 53 % 1029,9 hPa 0,0 l/m 2,6 km/h (1 Bft) NO 45 -1,9 C 10,3 C 3,1 km/h (1 Bft)
08.03.2014 18:00 7,1 C 54 % 1029,9 hPa 0,0 l/m 1,1 km/h (1 Bft) NO 45 -1,6 C 9,5 C 2,9 km/h (1 Bft)
08.03.2014 18:05 6,9 C 55 % 1029,9 hPa 0,0 l/m 1,4 km/h (1 Bft) O-NO 67 -1,5 C 8,7 C 1,8 km/h (1 Bft)
08.03.2014 18:10 6,7 C 56 % 1029,9 hPa 0,0 l/m 2,9 km/h (1 Bft) W-NW 292 -1,4 C 7,6 C 5,1 km/h (1 Bft)
08.03.2014 18:15 6,5 C 57 % 1029,9 hPa 0,0 l/m 3,5 km/h (1 Bft) NO 45 -1,4 C 7,2 C 4,7 km/h (1 Bft)
08.03.2014 18:20 6,2 C 58 % 1029,9 hPa 0,0 l/m 3,9 km/h (1 Bft) O-NO 67 -1,4 C 6,6 C 3,1 km/h (1 Bft)
08.03.2014 18:25 6,2 C 58 % 1029,9 hPa 0,0 l/m 4,0 km/h (1 Bft) O 90 -1,4 C 6,3 C 7,6 km/h (2 Bft)
08.03.2014 18:30 6,0 C 59 % 1029,9 hPa 0,0 l/m 4,7 km/h (1 Bft) O 90 -1,4 C 6,0 C 4,3 km/h (1 Bft)
08.03.2014 18:35 5,9 C 60 % 1029,9 hPa 0,0 l/m 4,7 km/h (1 Bft) NO 45 -1,3 C 5,9 C 5,5 km/h (1 Bft)
08.03.2014 18:40 5,8 C 61 % 1029,9 hPa 0,0 l/m 4,2 km/h (1 Bft) O-NO 67 -1,1 C 5,8 C 5,3 km/h (1 Bft)
08.03.2014 18:45 5,5 C 61 % 1029,9 hPa 0,0 l/m 4,3 km/h (1 Bft) O 90 -1,4 C 5,6 C 3,9 km/h (1 Bft)
08.03.2014 18:50 5,3 C 62 % 1029,9 hPa 0,0 l/m 4,7 km/h (1 Bft) O-NO 67 -1,4 C 5,3 C 6,3 km/h (2 Bft)
08.03.2014 18:55 5,4 C 63 % 1029,9 hPa 0,0 l/m 4,7 km/h (1 Bft) NO 45 -1,1 C 5,3 C 5,8 km/h (2 Bft)
08.03.2014 19:00 5,2 C 63 % 1029,9 hPa 0,0 l/m 4,5 km/h (1 Bft) O 90 -1,3 C 5,3 C 4,5 km/h (1 Bft)
08.03.2014 19:05 5,2 C 63 % 1029,9 hPa 0,0 l/m 4,2 km/h (1 Bft) O 90 -1,3 C 5,2 C 3,1 km/h (1 Bft)
08.03.2014 19:10 5,0 C 64 % 1029,9 hPa 0,0 l/m 3,7 km/h (1 Bft) O-NO 67 -1,2 C 5,1 C 3,5 km/h (1 Bft)
08.03.2014 19:15 4,9 C 64 % 1029,9 hPa 0,0 l/m 3,9 km/h (1 Bft) O-NO 67 -1,3 C 4,9 C 4,0 km/h (1 Bft)
08.03.2014 19:20 4,9 C 65 % 1029,9 hPa 0,0 l/m 4,0 km/h (1 Bft) O-NO 67 -1,1 C 4,6 C 6,1 km/h (2 Bft)
08.03.2014 19:25 4,8 C 65 % 1029,9 hPa 0,0 l/m 4,0 km/h (1 Bft) NO 45 -1,2 C 4,7 C 5,8 km/h (2 Bft)
08.03.2014 19:30 4,7 C 65 % 1029,9 hPa 0,0 l/m 4,5 km/h (1 Bft) O 90 -1,3 C 4,4 C 4,0 km/h (1 Bft)
08.03.2014 19:35 4,6 C 65 % 1029,9 hPa 0,0 l/m 4,0 km/h (1 Bft) NO 45 -1,4 C 4,6 C 3,5 km/h (1 Bft)
08.03.2014 19:40 4,5 C 66 % 1029,9 hPa 0,0 l/m 4,0 km/h (1 Bft) O-SO 112 -1,3 C 4,5 C 6,1 km/h (2 Bft)
08.03.2014 19:45 4,4 C 66 % 1029,9 hPa 0,0 l/m 4,2 km/h (1 Bft) NO 45 -1,4 C 4,4 C 5,6 km/h (1 Bft)
08.03.2014 19:50 4,3 C 66 % 1030,0 hPa 0,0 l/m 3,4 km/h (1 Bft) O-NO 67 -1,5 C 4,5 C 1,8 km/h (1 Bft)
08.03.2014 19:55 4,2 C 66 % 1030,0 hPa 0,0 l/m 2,1 km/h (1 Bft) O 90 -1,6 C 4,3 C 3,2 km/h (1 Bft)
08.03.2014 20:00 4,2 C 67 % 1030,0 hPa 0,0 l/m 1,8 km/h (1 Bft) NO 45 -1,4 C 3,8 C 0,0 km/h (0 Bft)
08.03.2014 20:05 3,0 C 66 % 1030,0 hPa 0,0 l/m 1,4 km/h (1 Bft) W-NW 292 -2,7 C 3,5 C 0,0 km/h (0 Bft)
08.03.2014 20:10 3,2 C 69 % 1030,1 hPa 0,0 l/m 1,1 km/h (1 Bft) NO 45 -1,9 C 2,8 C 4,3 km/h (1 Bft)
08.03.2014 20:15 3,7 C 69 % 1030,1 hPa 0,0 l/m 2,6 km/h (1 Bft) O-NO 67 -1,4 C 2,9 C 5,8 km/h (2 Bft)
08.03.2014 20:20 3,8 C 69 % 1030,1 hPa 0,0 l/m 4,2 km/h (1 Bft) NO 45 -1,4 C 2,8 C 5,0 km/h (1 Bft)
08.03.2014 20:25 3,9 C 69 % 1030,1 hPa 0,0 l/m 3,5 km/h (1 Bft) O 90 -1,3 C 3,3 C 0,0 km/h (0 Bft)
08.03.2014 20:30 3,4 C 70 % 1029,8 hPa 0,0 l/m 2,7 km/h (1 Bft) O-NO 67 -1,5 C 3,2 C 6,0 km/h (2 Bft)
08.03.2014 20:35 3,6 C 70 % 1029,8 hPa 0,0 l/m 3,1 km/h (1 Bft) O-NO 67 -1,3 C 3,2 C 6,4 km/h (2 Bft)
08.03.2014 20:40 3,6 C 70 % 1029,8 hPa 0,0 l/m 4,0 km/h (1 Bft) O-NO 67 -1,3 C 2,9 C 4,0 km/h (1 Bft)
08.03.2014 20:45 3,5 C 70 % 1029,8 hPa 0,0 l/m 3,5 km/h (1 Bft) O 90 -1,4 C 3,1 C 4,7 km/h (1 Bft)
08.03.2014 20:50 3,6 C 70 % 1029,7 hPa 0,0 l/m 3,1 km/h (1 Bft) NO 45 -1,3 C 2,8 C 4,3 km/h (1 Bft)
08.03.2014 20:55 3,3 C 70 % 1029,7 hPa 0,0 l/m 3,5 km/h (1 Bft) O 90 -1,6 C 2,3 C 2,7 km/h (1 Bft)
08.03.2014 21:00 1,9 C 70 % 1029,7 hPa 0,0 l/m 1,8 km/h (1 Bft) O 90 -3,0 C 2,0 C 0,0 km/h (0 Bft)
08.03.2014 21:05 1,0 C 70 % 1029,7 hPa 0,0 l/m 0,3 km/h (0 Bft) O 90 -3,8 C 1,4 C 0,0 km/h (0 Bft)
08.03.2014 21:10 0,9 C 75 % 1029,9 hPa 0,0 l/m 0,2 km/h (0 Bft) N-NO 22 -3,0 C 0,5 C 0,0 km/h (0 Bft)
08.03.2014 21:15 0,6 C 74 % 1029,9 hPa 0,0 l/m 0,2 km/h (0 Bft) N 360 -3,5 C 0,4 C 0,0 km/h (0 Bft)
08.03.2014 21:20 0,8 C 76 % 1029,9 hPa 0,0 l/m 0,0 km/h (0 Bft) NO 45 -2,9 C 0,1 C 0,0 km/h (0 Bft)
08.03.2014 21:25 1,9 C 77 % 1029,9 hPa 0,0 l/m 0,3 km/h (0 Bft) NO 45 -1,7 C 0,3 C 0,0 km/h (0 Bft)
08.03.2014 21:30 1,4 C 77 % 1029,7 hPa 0,0 l/m 0,5 km/h (0 Bft) O-SO 112 -2,2 C 0,3 C 0,0 km/h (0 Bft)
08.03.2014 21:35 0,5 C 76 % 1029,7 hPa 0,0 l/m 0,2 km/h (0 Bft) O 90 -3,2 C 0,0 C 0,0 km/h (0 Bft)
08.03.2014 21:40 -0,1 C 76 % 1029,7 hPa 0,0 l/m 0,0 km/h (0 Bft) O-SO 112 -3,8 C -0,4 C 0,0 km/h (0 Bft)
08.03.2014 21:45 -0,3 C 77 % 1029,7 hPa 0,0 l/m 0,0 km/h (0 Bft) N-NO 22 -3,8 C -0,7 C 0,0 km/h (0 Bft)
08.03.2014 21:50 -0,4 C 78 % 1029,4 hPa 0,0 l/m 0,0 km/h (0 Bft) NO 45 -3,8 C -1,1 C 0,0 km/h (0 Bft)
08.03.2014 21:55 -0,3 C 79 % 1029,4 hPa 0,0 l/m 0,0 km/h (0 Bft) N-NO 22 -3,5 C -1,2 C 0,0 km/h (0 Bft)
08.03.2014 22:00 -0,7 C 79 % 1029,4 hPa 0,0 l/m 0,0 km/h (0 Bft) N-NO 22 -3,9 C -1,3 C 0,0 km/h (0 Bft)
08.03.2014 22:05 -0,9 C 79 % 1029,4 hPa 0,0 l/m 0,0 km/h (0 Bft) NO 45 -4,1 C -1,4 C 0,0 km/h (0 Bft)
08.03.2014 22:10 -0,8 C 80 % 1029,4 hPa 0,0 l/m 0,0 km/h (0 Bft) NO 45 -3,8 C -1,4 C 0,0 km/h (0 Bft)
08.03.2014 22:15 -0,9 C 80 % 1029,4 hPa 0,0 l/m 0,0 km/h (0 Bft) N 360 -3,9 C -1,5 C 0,0 km/h (0 Bft)
08.03.2014 22:20 -1,4 C 80 % 1029,4 hPa 0,0 l/m 0,0 km/h (0 Bft) NO 45 -4,4 C -1,5 C 0,0 km/h (0 Bft)
08.03.2014 22:24 -1,1 C 80 % 1029,4 hPa 0,0 l/m 0,0 km/h (0 Bft) N-NO 22 -4,1 C -1,7 C 0,0 km/h (0 Bft)
08.03.2014 22:25 -1,1 C 80 % 1029,4 hPa 0,0 l/m 0,0 km/h (0 Bft) N-NO 22 -4,1 C -1,7 C 0,0 km/h (0 Bft)
08.03.2014 22:30 -1,0 C 81 % 1029,4 hPa 0,0 l/m 0,2 km/h (0 Bft) N 360 -3,8 C -1,6 C 1,6 km/h (1 Bft)
08.03.2014 22:35 -1,2 C 81 % 1029,4 hPa 0,0 l/m 0,2 km/h (0 Bft) O-SO 112 -4,0 C -1,5 C 0,0 km/h (0 Bft)
08.03.2014 22:40 -1,2 C 82 % 1029,4 hPa 0,0 l/m 0,0 km/h (0 Bft) O-SO 112 -3,9 C -1,7 C 0,0 km/h (0 Bft)
08.03.2014 22:45 -1,3 C 82 % 1029,4 hPa 0,0 l/m 0,0 km/h (0 Bft) O-SO 112 -4,0 C -1,8 C 0,0 km/h (0 Bft)
08.03.2014 22:50 -1,5 C 83 % 1029,6 hPa 0,0 l/m 0,3 km/h (0 Bft) O 90 -4,0 C -1,9 C 2,9 km/h (1 Bft)
08.03.2014 22:55 -1,1 C 84 % 1029,6 hPa 0,0 l/m 0,6 km/h (0 Bft) O 90 -3,4 C -1,8 C 0,0 km/h (0 Bft)
08.03.2014 23:00 -0,1 C 85 % 1029,6 hPa 0,0 l/m 1,6 km/h (1 Bft) W 270 -2,3 C -1,6 C 1,6 km/h (1 Bft)
08.03.2014 23:05 -1,1 C 84 % 1029,6 hPa 0,0 l/m 1,0 km/h (0 Bft) W-NW 292 -3,4 C -1,7 C 0,0 km/h (0 Bft)
08.03.2014 23:10 -2,0 C 83 % 1029,5 hPa 0,0 l/m 0,0 km/h (0 Bft) W-NW 292 -4,5 C -2,2 C 0,0 km/h (0 Bft)
08.03.2014 23:15 -2,2 C 83 % 1029,5 hPa 0,0 l/m 0,0 km/h (0 Bft) W-NW 292 -4,7 C -2,3 C 0,0 km/h (0 Bft)
08.03.2014 23:20 -2,3 C 83 % 1029,5 hPa 0,0 l/m 0,0 km/h (0 Bft) W-NW 292 -4,8 C -2,6 C 0,0 km/h (0 Bft)
08.03.2014 23:25 -2,2 C 83 % 1029,5 hPa 0,0 l/m 0,0 km/h (0 Bft) W-NW 292 -4,7 C -2,8 C 0,0 km/h (0 Bft)
08.03.2014 23:30 -2,3 C 83 % 1029,3 hPa 0,0 l/m 0,0 km/h (0 Bft) W-NW 292 -4,8 C -2,6 C 0,0 km/h (0 Bft)
08.03.2014 23:35 -2,4 C 83 % 1029,3 hPa 0,0 l/m 0,0 km/h (0 Bft) W-NW 292 -4,9 C -2,6 C 0,0 km/h (0 Bft)
08.03.2014 23:40 -2,4 C 84 % 1029,3 hPa 0,0 l/m 0,0 km/h (0 Bft) W-SW 247 -4,7 C -2,7 C 0,0 km/h (0 Bft)
08.03.2014 23:45 -2,6 C 84 % 1029,3 hPa 0,0 l/m 0,0 km/h (0 Bft) W-SW 247 -4,9 C -2,8 C 0,0 km/h (0 Bft)
08.03.2014 23:50 -2,0 C 85 % 1029,2 hPa 0,0 l/m 0,0 km/h (0 Bft) NO 45 -4,2 C -2,8 C 1,6 km/h (1 Bft)
08.03.2014 23:55 -2,2 C 85 % 1029,2 hPa 0,0 l/m 0,3 km/h (0 Bft) N 360 -4,4 C -2,7 C 0,0 km/h (0 Bft)
_ Min-Zeit 23:45 17:00 00:05 - 23:50 - - 23:45 02:50 23:55
Minimum _ -2,6 C 38 % 1025,0 hPa - 0,0 km/h (0 Bft) - - -4,9 C -2,9 C 0,0 km/h (0 Bft)
_ Max-Zeit 15:05 01:25 12:45 23:55 14:45 - - 09:35 15:05 14:30
Maximum _ 13,2 C 93 % 1031,1 hPa 0,0 l/m 8,7 km/h
N-NW (2 Bft)
- - 4,1 C 16,1 C 16,9 km/h
W-NW (3 Bft)
Durchschnitt _ 4,4 C 70 % 1029,1 hPa #0,0 l/m 3,2 km/h (1 Bft) NO - -1,2 C 5,1 C 4,0 km/h (1 Bft)